Satellite-Ground Cal/Val Region Overpasses Predictions

Prediction of Satellite NPP Overpassing Cal/Val Region: PacNW

Region Location: (Latitude: 10.00, Longitude: 139.50) to (Latitude: 22.70, Longitude: 165.60).

Table of predicted overpasses for the next 14.0 days since TLE Epoch: 8/16/2019
Interval Starting Time Starting Location Ending Time Ending Location
1 08/17/2019 02:58:44 ( 10.05, 155.07) 08/17/2019 03:02:19 ( 22.67, 152.07)
2 08/17/2019 15:30:36 ( 22.66, 152.32) 08/17/2019 15:34:11 ( 10.04, 149.31)
3 08/18/2019 02:39:41 ( 10.01, 159.84) 08/18/2019 02:43:17 ( 22.69, 156.82)
4 08/18/2019 15:11:35 ( 22.64, 157.07) 08/18/2019 15:15:10 ( 10.02, 154.07)
5 08/19/2019 02:20:40 ( 10.03, 164.60) 08/19/2019 02:24:15 ( 22.65, 161.59)
6 08/19/2019 14:52:32 ( 22.68, 161.84) 08/19/2019 14:56:08 ( 10.01, 158.82)
7 08/20/2019 03:43:08 ( 10.05, 143.97) 08/20/2019 03:46:43 ( 22.67, 140.97)
8 08/20/2019 14:34:40 ( 18.62, 165.60) 08/20/2019 14:37:06 ( 10.05, 163.59)
9 08/20/2019 16:15:01 ( 22.66, 141.22) 08/20/2019 16:17:01 ( 15.62, 139.51)
10 08/21/2019 03:24:06 ( 10.01, 148.74) 08/21/2019 03:27:42 ( 22.69, 145.72)
11 08/21/2019 15:56:00 ( 22.64, 145.97) 08/21/2019 15:59:35 ( 10.02, 142.97)
12 08/22/2019 03:05:04 ( 10.03, 153.50) 08/22/2019 03:08:39 ( 22.65, 150.49)
13 08/22/2019 15:36:57 ( 22.69, 150.74) 08/22/2019 15:40:33 ( 10.01, 147.72)
14 08/23/2019 02:46:03 ( 10.05, 158.25) 08/23/2019 02:49:38 ( 22.67, 155.24)
15 08/23/2019 15:17:56 ( 22.67, 155.49) 08/23/2019 15:21:31 ( 10.05, 152.49)
16 08/24/2019 02:27:00 ( 10.01, 163.02) 08/24/2019 02:30:36 ( 22.69, 160.00)
17 08/24/2019 14:58:54 ( 22.65, 160.25) 08/24/2019 15:02:29 ( 10.03, 157.24)
18 08/25/2019 02:10:37 ( 19.30, 165.59) 08/25/2019 02:11:34 ( 22.65, 164.77)
19 08/25/2019 03:49:29 ( 10.03, 142.40) 08/25/2019 03:52:56 ( 22.18, 139.51)
20 08/25/2019 14:39:52 ( 22.69, 165.01) 08/25/2019 14:43:28 ( 10.01, 162.00)
21 08/25/2019 16:21:22 ( 22.68, 139.64) 08/25/2019 16:21:31 ( 22.16, 139.51)
22 08/26/2019 03:30:27 ( 10.05, 147.15) 08/26/2019 03:34:02 ( 22.67, 144.14)
23 08/26/2019 16:02:20 ( 22.67, 144.39) 08/26/2019 16:05:55 ( 10.05, 141.39)
24 08/27/2019 03:11:25 ( 10.01, 151.92) 08/27/2019 03:15:01 ( 22.69, 148.90)
25 08/27/2019 15:43:19 ( 22.65, 149.15) 08/27/2019 15:46:54 ( 10.03, 146.14)
26 08/28/2019 02:52:23 ( 10.03, 156.67) 08/28/2019 02:55:58 ( 22.65, 153.67)
27 08/28/2019 15:24:16 ( 22.69, 153.91) 08/28/2019 15:27:52 ( 10.01, 150.90)
28 08/29/2019 02:33:22 ( 10.05, 161.42) 08/29/2019 02:36:57 ( 22.67, 158.42)
29 08/29/2019 15:05:15 ( 22.67, 158.67) 08/29/2019 15:08:50 ( 10.05, 155.66)
30 08/30/2019 02:15:04 ( 12.60, 165.60) 08/30/2019 02:17:56 ( 22.69, 163.17)
31 08/30/2019 03:55:50 ( 10.02, 140.82) 08/30/2019 03:57:26 ( 15.66, 139.51)


NCC Satellite Cal/Val Overpasses Prediction Service
